| time (UTC) | temp C | wind direction | speed KPH | gust KPH | rain 1hr cm | rain 24hr cm | rain mn cm | humidity % | barometer mb |
| 20260508023423 | 26 | 202 | 12.9 | 16.1 | 0.00 | 0.00 | 0.00 | 79 | 1013.3 |
| 20260508021259 | 26 | 185 | 12.9 | 17.7 | 0.00 | 0.00 | 0.00 | 78 | 1013.2 |
| 20260508015122 | 27 | 176 | 12.9 | 20.9 | 0.00 | 0.00 | 0.00 | 78 | 1012.9 |
| 20260508011815 | 27 | 153 | 11.3 | 17.7 | 0.00 | 0.00 | 0.00 | 79 | 1012.8 |
| 20260508010827 | 27 | 139 | 11.3 | 17.7 | 0.00 | 0.00 | 0.00 | 78 | 1012.7 |
| 20260508005847 | 27 | 161 | 11.3 | 20.9 | 0.00 | 0.00 | 0.00 | 79 | 1012.7 |
| 20260508004851 | 27 | 154 | 14.5 | 20.9 | 0.00 | 0.00 | 0.00 | 79 | 1012.7 |
| 20260508002758 | 27 | 140 | 12.9 | 25.7 | 0.00 | 0.00 | 0.00 | 79 | 1012.7 |
| 20260508001811 | 27 | 132 | 16.1 | 25.7 | 0.00 | 0.00 | 0.00 | 79 | 1012.7 |
| 20260508000733 | 27 | 150 | 16.1 | 29.0 | 0.00 | 0.00 | 0.00 | 79 | 1012.6 |
| 20260507235709 | 27 | 152 | 16.1 | 30.6 | 0.00 | 0.00 | 0.00 | 79 | 1012.5 |
| 20260507234637 | 27 | 148 | 16.1 | 32.2 | 0.00 | 0.00 | 0.00 | 78 | 1012.5 |
| 20260507232500 | 27 | 148 | 16.1 | 27.4 | 0.00 | 0.00 | 0.00 | 77 | 1012.5 |
| 20260507231515 | 27 | 144 | 12.9 | 22.5 | 0.00 | 0.00 | 0.00 | 78 | 1012.5 |
| 20260507230455 | 27 | 123 | 11.3 | 22.5 | 0.00 | 0.00 | 0.00 | 77 | 1012.5 |
| 20260507225424 | 27 | 153 | 11.3 | 24.1 | 0.00 | 0.00 | 0.00 | 76 | 1012.4 |
| 20260507223224 | 27 | 133 | 12.9 | 22.5 | 0.00 | 0.00 | 0.00 | 75 | 1012.3 |
| 20260507222241 | 28 | 158 | 12.9 | 22.5 | 0.00 | 0.00 | 0.00 | 75 | 1012.3 |
| 20260507221220 | 28 | 113 | 11.3 | 20.9 | 0.00 | 0.00 | 0.00 | 74 | 1012.4 |
| 20260507220206 | 28 | 133 | 11.3 | 20.9 | 0.00 | 0.00 | 0.00 | 73 | 1012.4 |
| 20260507215147 | 28 | 124 | 12.9 | 20.9 | 0.00 | 0.00 | 0.00 | 73 | 1012.4 |
| 20260507214122 | 27 | 128 | 12.9 | 20.9 | 0.00 | 0.00 | 0.00 | 74 | 1012.4 |
| 20260507205736 | 28 | 152 | 12.9 | 22.5 | 0.00 | 0.00 | 0.00 | 74 | 1012.7 |
| 20260507203549 | 28 | 124 | 12.9 | 22.5 | 0.00 | 0.00 | 0.00 | 74 | 1012.7 |
| 20260507202520 | 28 | 151 | 12.9 | 22.5 | 0.00 | 0.00 | 0.00 | 74 | 1012.8 |
| 20260507201454 | 28 | 133 | 12.9 | 22.5 | 0.00 | 0.00 | 0.00 | 75 | 1012.9 |
| 20260507200429 | 28 | 132 | 11.3 | 19.3 | 0.00 | 0.00 | 0.00 | 74 | 1013.1 |
| 20260507195356 | 28 | 98 | 11.3 | 20.9 | 0.00 | 0.00 | 0.00 | 75 | 1013.3 |
| 20260507194354 | 28 | 112 | 12.9 | 22.5 | 0.00 | 0.00 | 0.00 | 74 | 1013.4 |
| 20260507192231 | 27 | 121 | 11.3 | 20.9 | 0.00 | 0.00 | 0.00 | 74 | 1013.4 |
| 20260507191211 | 27 | 118 | 11.3 | 20.9 | 0.00 | 0.00 | 0.00 | 74 | 1013.8 |
| 20260507185057 | 28 | 96 | 9.7 | 16.1 | 0.00 | 0.00 | 0.00 | 74 | 1014.1 |
| 20260507184042 | 28 | 118 | 8.0 | 17.7 | 0.00 | 0.00 | 0.00 | 74 | 1014.3 |
| 20260507183028 | 27 | 86 | 9.7 | 19.3 | 0.00 | 0.00 | 0.00 | 73 | 1014.5 |
| 20260507181951 | 28 | 131 | 11.3 | 19.3 | 0.00 | 0.00 | 0.00 | 73 | 1014.6 |
| 20260507180935 | 28 | 103 | 9.7 | 17.7 | 0.00 | 0.00 | 0.00 | 69 | 1014.7 |
| 20260507174758 | 27 | 77 | 9.7 | 17.7 | 0.00 | 0.00 | 0.00 | 72 | 1014.8 |
| 20260507173738 | 28 | 99 | 9.7 | 17.7 | 0.00 | 0.00 | 0.00 | 70 | 1014.8 |
| 20260507172746 | 27 | 124 | 11.3 | 17.7 | 0.00 | 0.00 | 0.00 | 74 | 1014.8 |
| 20260507171733 | 27 | 123 | 9.7 | 17.7 | 0.00 | 0.00 | 0.00 | 73 | 1014.9 |
| 20260507170742 | 27 | 115 | 9.7 | 17.7 | 0.00 | 0.00 | 0.00 | 74 | 1015.0 |
| 20260507164628 | 27 | 105 | 9.7 | 17.7 | 0.00 | 0.00 | 0.00 | 72 | 1015.1 |
| 20260507163629 | 28 | 144 | 8.0 | 17.7 | 0.00 | 0.00 | 0.00 | 70 | 1015.3 |
| 20260507161510 | 28 | 171 | 4.8 | 9.7 | 0.00 | 0.00 | 0.00 | 67 | 1015.5 |
| 20260507160522 | 28 | 173 | 0.0 | 0.0 | 0.00 | 0.00 | 0.00 | 65 | 1015.6 |
| 20260507155454 | 28 | 187 | 3.2 | 8.0 | 0.00 | 0.00 | 0.00 | 66 | 1015.8 |
| 20260507154459 | 28 | 202 | 3.2 | 9.7 | 0.00 | 0.00 | 0.00 | 68 | 1015.8 |
| 20260507152318 | 27 | 200 | 8.0 | 12.9 | 0.00 | 0.00 | 0.00 | 68 | 1015.9 |
| 20260507151338 | 27 | 211 | 9.7 | 17.7 | 0.00 | 0.00 | 0.00 | 69 | 1016.0 |
| 20260507145201 | 27 | 193 | 12.9 | 16.1 | 0.00 | 0.00 | 0.00 | 71 | 1016.1 |
| 20260507144153 | 27 | 205 | 12.9 | 16.1 | 0.00 | 0.00 | 0.00 | 70 | 1016.1 |
| 20260507143206 | 26 | 211 | 12.9 | 16.1 | 0.00 | 0.00 | 0.00 | 70 | 1016.1 |
| 20260507142140 | 26 | 205 | 12.9 | 16.1 | 0.00 | 0.00 | 0.00 | 72 | 1016.2 |
| 20260507141111 | 26 | 218 | 12.9 | 16.1 | 0.00 | 0.00 | 0.00 | 72 | 1016.1 |
| 20260507140055 | 26 | 205 | 12.9 | 19.3 | 0.00 | 0.00 | 0.00 | 71 | 1016.3 |
| 20260507135058 | 26 | 215 | 14.5 | 19.3 | 0.00 | 0.00 | 0.00 | 69 | 1016.2 |
| 20260507134030 | 26 | 192 | 11.3 | 17.7 | 0.00 | 0.00 | 0.00 | 72 | 1016.1 |
| 20260507133034 | 25 | 186 | 9.7 | 14.5 | 0.00 | 0.00 | 0.00 | 74 | 1016.1 |
| 20260507131003 | 25 | 176 | 6.4 | 9.7 | 0.00 | 0.00 | 0.00 | 77 | 1016.2 |
| 20260507125933 | 25 | 176 | 6.4 | 9.7 | 0.00 | 0.00 | 0.00 | 77 | 1016.3 |
| 20260507124948 | 24 | 178 | 6.4 | 9.7 | 0.00 | 0.00 | 0.00 | 78 | 1016.3 |
| 20260507123924 | 24 | 203 | 9.7 | 11.3 | 0.00 | 0.00 | 0.00 | 78 | 1016.3 |
| 20260507122859 | 23 | 200 | 9.7 | 12.9 | 0.00 | 0.00 | 0.00 | 80 | 1016.3 |
| 20260507121847 | 23 | 190 | 8.0 | 12.9 | 0.00 | 0.00 | 0.00 | 80 | 1016.2 |
| 20260507115730 | 23 | 198 | 6.4 | 9.7 | 0.00 | 0.00 | 0.00 | 82 | 1016.2 |
| 20260507114746 | 23 | 209 | 4.8 | 6.4 | 0.00 | 0.00 | 0.00 | 83 | 1016.2 |
| 20260507113724 | 23 | 213 | 6.4 | 8.0 | 0.00 | 0.00 | 0.00 | 83 | 1016.1 |
| 20260507112719 | 22 | 215 | 6.4 | 8.0 | 0.00 | 0.00 | 0.00 | 83 | 1016.0 |
| 20260507111718 | 22 | 233 | 8.0 | 11.3 | 0.00 | 0.00 | 0.00 | 83 | 1015.9 |
| 20260507110717 | 22 | 228 | 8.0 | 11.3 | 0.00 | 0.00 | 0.00 | 82 | 1015.8 |
| 20260507105649 | 22 | 223 | 9.7 | 14.5 | 0.00 | 0.00 | 0.00 | 81 | 1015.8 |
| 20260507104701 | 23 | 232 | 8.0 | 14.5 | 0.00 | 0.00 | 0.00 | 81 | 1015.6 |
| 20260507103633 | 23 | 214 | 6.4 | 9.7 | 0.00 | 0.00 | 0.00 | 81 | 1015.6 |
| 20260507102615 | 23 | 211 | 6.4 | 9.7 | 0.00 | 0.00 | 0.00 | 81 | 1015.5 |
| 20260507101623 | 23 | 219 | 8.0 | 12.9 | 0.00 | 0.00 | 0.00 | 81 | 1015.4 |
| 20260507100630 | 23 | 229 | 9.7 | 12.9 | 0.00 | 0.00 | 0.00 | 81 | 1015.0 |
| 20260507095647 | 23 | 210 | 9.7 | 12.9 | 0.00 | 0.00 | 0.00 | 80 | 1014.8 |
| 20260507094629 | 23 | 200 | 6.4 | 9.7 | 0.00 | 0.00 | 0.00 | 80 | 1014.8 |
| 20260507093553 | 23 | 184 | 4.8 | 8.0 | 0.00 | 0.00 | 0.00 | 81 | 1014.7 |
| 20260507092533 | 23 | 208 | 4.8 | 6.4 | 0.00 | 0.00 | 0.00 | 81 | 1014.8 |
| 20260507091555 | 23 | 221 | 3.2 | 6.4 | 0.00 | 0.00 | 0.00 | 81 | 1014.9 |
| 20260507085425 | 23 | 227 | 0.0 | 0.0 | 0.00 | 0.00 | 0.00 | 81 | 1014.7 |
| 20260507084416 | 23 | 219 | 3.2 | 8.0 | 0.00 | 0.00 | 0.00 | 81 | 1014.5 |
| 20260507083354 | 23 | 212 | 4.8 | 8.0 | 0.00 | 0.00 | 0.00 | 81 | 1014.4 |
| 20260507082323 | 23 | 209 | 4.8 | 6.4 | 0.00 | 0.00 | 0.00 | 81 | 1014.4 |
| 20260507081332 | 23 | 195 | 4.8 | 6.4 | 0.00 | 0.00 | 0.00 | 81 | 1014.4 |
| 20260507080257 | 23 | 216 | 3.2 | 6.4 | 0.00 | 0.00 | 0.00 | 81 | 1014.4 |
| 20260507075244 | 23 | 223 | 3.2 | 4.8 | 0.00 | 0.00 | 0.00 | 81 | 1014.4 |
| 20260507074208 | 23 | 205 | 4.8 | 6.4 | 0.00 | 0.00 | 0.00 | 81 | 1014.5 |
| 20260507073206 | 23 | 209 | 4.8 | 8.0 | 0.00 | 0.00 | 0.00 | 81 | 1014.6 |
| 20260507071055 | 23 | 212 | 9.7 | 11.3 | 0.00 | 0.00 | 0.00 | 81 | 1014.8 |
| 20260507070032 | 23 | 190 | 6.4 | 11.3 | 0.00 | 0.00 | 0.00 | 81 | 1014.8 |
| 20260507065026 | 23 | 193 | 4.8 | 9.7 | 0.00 | 0.00 | 0.00 | 80 | 1015.0 |
| 20260507064000 | 23 | 243 | 8.0 | 11.3 | 0.00 | 0.00 | 0.00 | 80 | 1015.2 |
| 20260507062952 | 23 | 248 | 6.4 | 11.3 | 0.00 | 0.00 | 0.00 | 80 | 1015.4 |
| 20260507062010 | 23 | 232 | 6.4 | 9.7 | 0.00 | 0.00 | 0.00 | 79 | 1015.4 |
| 20260507061006 | 24 | 237 | 8.0 | 11.3 | 0.00 | 0.00 | 0.00 | 79 | 1015.4 |
| 20260507060014 | 24 | 209 | 8.0 | 11.3 | 0.00 | 0.00 | 0.00 | 79 | 1015.4 |
| 20260507054957 | 24 | 193 | 9.7 | 12.9 | 0.00 | 0.00 | 0.00 | 79 | 1015.4 |
| 20260507053946 | 24 | 216 | 9.7 | 16.1 | 0.00 | 0.00 | 0.00 | 78 | 1015.6 |
| 20260507052911 | 25 | 228 | 11.3 | 17.7 | 0.00 | 0.00 | 0.00 | 77 | 1015.7 |
| 20260507051847 | 26 | 232 | 11.3 | 19.3 | 0.00 | 0.00 | 0.00 | 75 | 1015.9 |
| 20260507050817 | 26 | 158 | 9.7 | 19.3 | 0.00 | 0.00 | 0.00 | 74 | 1016.0 |
| 20260507045749 | 26 | 143 | 9.7 | 19.3 | 0.00 | 0.00 | 0.00 | 74 | 1016.0 |
| 20260507044747 | 26 | 142 | 11.3 | 19.3 | 0.00 | 0.00 | 0.00 | 73 | 1015.9 |
| 20260507041444 | 26 | 142 | 9.7 | 17.7 | 0.00 | 0.00 | 0.00 | 73 | 1015.6 |
| 20260507035346 | 26 | 139 | 9.7 | 19.3 | 0.00 | 0.00 | 0.00 | 72 | 1015.9 |
| 20260507033225 | 26 | 156 | 8.0 | 19.3 | 0.00 | 0.00 | 0.00 | 73 | 1015.9 |
| 20260507032247 | 26 | 137 | 8.0 | 19.3 | 0.00 | 0.00 | 0.00 | 73 | 1015.9 |
| 20260507031240 | 26 | 95 | 11.3 | 19.3 | 0.00 | 0.00 | 0.00 | 73 | 1015.8 |
| 20260507030226 | 26 | 148 | 9.7 | 19.3 | 0.00 | 0.00 | 0.00 | 73 | 1015.6 |